パンスターズ彗星

C/2023 R2 ( PanSTARRS )

English version
Home page
Updated on February 27, 2024

---------------------------------------------------------------------

・ プロフィール

発見日 2023年9月10日
発見光度 20.6等
発見者 Pan-STARRS 2 telescope (Haleakala)

・ 写真集

・ 軌道要素

Epoch 2023 Sept. 13.0 TT = JDT 2460200.5
T 2024 Aug. 12.07157 TT                                 Rudenko
q   0.9066808            (2000.0)            P               Q
z  -0.0010305      Peri.  337.09144     -0.96227707     -0.25986588
 +/-0.0000337      Node   189.05583     +0.24921736     -0.96071550
e   1.0009343      Incl.   30.79259     -0.10914918     +0.09744463
>From 292 observations 2023 Sept. 10-2024 Jan. 14, mean residual 0".5.

・ 星図

・ 光度変化

        m1 = 10.5 + 5 logΔ + 10.0 log r

---------------------------------------------------------------------

軌道要素はM.P.E.C. 2024-B140に掲載されたものです。
星図はステラナビゲータ Ver.11 (アストロアーツ) で作成したものです。
光度グラフはComet for Windowsで作成したものです。

---------------------------------------------------------------------

Copyright(C) Seiichi Yoshida (comet@aerith.net). All rights reserved.